User: anonymous   Login
Location: Cronhütte
(48.9135°N, 9.6869°E)
Time: 08:04:37
(UTC+00:00)
Language:

Meteor 1-12 Rocket - Orbit

View from above orbital plane
View from above orbital plane
View from above satellite
View from above satellite

Ground track
Ground track

The orbit data is extracted from the following two-line orbital elements,

1 06080U 72049B   24202.89473124  .00000225  00000-0  14056-3 0  9992
2 06080  81.2391  21.2113 0048507 206.0868 153.7854 14.01123450659682
Epoch (UTC): 20 July 2024 21:28:24
Eccentricity: 0.0048507
inclination: 81.2391°
perigee height: 854 km
apogee height: 925 km
right ascension of ascending node: 21.2113°
argument of perigee: 206.0868°
revolutions per day: 14.01123450
mean anomaly at epoch: 153.7854°
orbit number at epoch: 65968

The dashed part of the orbit path shows where the satellite is in the earth's shadow,  

DLR